Radiation Dose at Monitoring Post of Fukushima Daini Nuclear Power Station
Date,Time,MP-1(microSv/h),MP-2(microSv/h),MP-3(microSv/h),MP-4(microSv/h),MP-5(microSv/h),MP-6(microSv/h),MP-7(microSv/h),Wind Direction,Wind Velocity(m/s),Rain
2015/09/20,00:00,0.475,0.277,0.497,0.454,0.445,0.222,0.192,west,4.8,No
2015/09/20,00:10,0.472,0.276,0.495,0.454,0.451,0.222,0.191,west-northwest,4.2,No
2015/09/20,00:20,0.474,0.278,0.489,0.458,0.446,0.221,0.192,west-northwest,4.6,No
2015/09/20,00:30,0.479,0.277,0.497,0.453,0.448,0.222,0.191,west-northwest,3.8,No
2015/09/20,00:40,0.471,0.277,0.494,0.456,0.450,0.221,0.193,north-northwest,3.6,No
2015/09/20,00:50,0.477,0.277,0.493,0.458,0.445,0.222,0.191,north,1.2,No
2015/09/20,01:00,0.476,0.278,0.496,0.453,0.452,0.222,0.192,-,CALM,No
2015/09/20,01:10,0.474,0.278,0.491,0.460,0.446,0.222,0.190,west-northwest,1.1,No
2015/09/20,01:20,0.476,0.276,0.498,0.458,0.451,0.222,0.192,west-northwest,1.7,No
2015/09/20,01:30,0.471,0.278,0.495,0.457,0.448,0.222,0.191,west-northwest,1.6,No
2015/09/20,01:40,0.479,0.274,0.494,0.457,0.445,0.224,0.192,-,CALM,No
2015/09/20,01:50,0.474,0.278,0.498,0.453,0.452,0.222,0.192,-,CALM,No
2015/09/20,02:00,0.473,0.275,0.492,0.459,0.446,0.222,0.191,-,CALM,No
2015/09/20,02:10,0.476,0.278,0.495,0.456,0.446,0.222,0.192,east,1.1,No
2015/09/20,02:20,0.472,0.277,0.496,0.456,0.450,0.222,0.192,east,1.7,No
2015/09/20,02:30,0.477,0.276,0.490,0.459,0.445,0.221,0.192,northeast,0.8,No
2015/09/20,02:40,0.473,0.278,0.499,0.453,0.449,0.222,0.191,north,1.6,No
2015/09/20,02:50,0.472,0.276,0.494,0.458,0.448,0.223,0.191,north-northeast,0.5,No
2015/09/20,03:00,0.479,0.278,0.493,0.457,0.444,0.222,0.192,east-southeast,0.7,No
2015/09/20,03:10,0.473,0.275,0.498,0.454,0.450,0.223,0.191,southeast,0.6,No
2015/09/20,03:20,0.476,0.276,0.491,0.460,0.447,0.222,0.192,south-southeast,1.4,No
2015/09/20,03:30,0.475,0.277,0.495,0.454,0.448,0.222,0.191,south-southeast,1.3,No
2015/09/20,03:40,0.469,0.276,0.496,0.457,0.451,0.222,0.192,south-southeast,1.0,No
2015/09/20,03:50,0.477,0.277,0.492,0.457,0.445,0.223,0.192,south-southwest,0.5,No
2015/09/20,04:00,0.472,0.276,0.499,0.452,0.451,0.223,0.191,-,CALM,No
2015/09/20,04:10,0.474,0.277,0.493,0.460,0.448,0.222,0.192,-,CALM,No
2015/09/20,04:20,0.477,0.276,0.496,0.454,0.448,0.222,0.192,-,CALM,No
2015/09/20,04:30,0.472,0.275,0.495,0.458,0.449,0.222,0.193,-,CALM,No
2015/09/20,04:40,0.476,0.277,0.492,0.457,0.444,0.224,0.192,north,1.0,No
2015/09/20,04:50,0.472,0.275,0.498,0.454,0.449,0.223,0.192,north-northwest,1.9,No
2015/09/20,05:00,0.475,0.278,0.494,0.461,0.446,0.222,0.192,north-northwest,2.5,No
2015/09/20,05:10,0.476,0.275,0.495,0.455,0.447,0.223,0.191,north-northwest,2.5,No
2015/09/20,05:20,0.472,0.276,0.497,0.459,0.449,0.223,0.192,north-northwest,2.8,No
2015/09/20,05:30,0.479,0.276,0.493,0.456,0.445,0.223,0.191,north,2.8,No
2015/09/20,05:40,0.472,0.276,0.499,0.457,0.451,0.221,0.192,north-northwest,3.0,No
2015/09/20,05:50,0.476,0.278,0.494,0.459,0.446,0.223,0.191,north-northwest,3.2,No
2015/09/20,06:00,0.476,0.275,0.497,0.453,0.446,0.222,0.193,north-northwest,3.2,No
2015/09/20,06:10,0.474,0.278,0.497,0.460,0.451,0.222,0.191,northwest,3.5,No
2015/09/20,06:20,0.477,0.277,0.493,0.456,0.446,0.222,0.192,west-northwest,3.1,No
2015/09/20,06:30,0.473,0.277,0.498,0.456,0.450,0.222,0.192,west-northwest,2.2,No
2015/09/20,06:40,0.476,0.277,0.494,0.458,0.445,0.222,0.192,north-northwest,2.2,No
2015/09/20,06:50,0.476,0.276,0.494,0.454,0.447,0.223,0.193,north-northwest,2.2,No
2015/09/20,07:00,0.473,0.279,0.497,0.459,0.452,0.223,0.192,north-northwest,2.1,No
2015/09/20,07:10,0.477,0.276,0.492,0.457,0.446,0.222,0.191,northwest,2.3,No
2015/09/20,07:20,0.474,0.275,0.497,0.453,0.449,0.222,0.192,north-northwest,2.1,No
2015/09/20,07:30,0.474,0.278,0.493,0.461,0.449,0.223,0.191,-,CALM,No
2015/09/20,07:40,0.478,0.276,0.495,0.454,0.444,0.223,0.192,-,CALM,No
2015/09/20,07:50,0.471,0.277,0.498,0.455,0.451,0.222,0.192,west-southwest,0.9,No
2015/09/20,08:00,0.477,0.278,0.491,0.459,0.449,0.223,0.191,-,CALM,No
2015/09/20,08:10,0.475,0.275,0.498,0.455,0.445,0.222,0.194,west,0.8,No
2015/09/20,08:20,0.468,0.279,0.496,0.455,0.451,0.222,0.192,northwest,1.8,No
2015/09/20,08:30,0.478,0.278,0.493,0.459,0.448,0.223,0.191,north-northwest,3.1,No
2015/09/20,08:40,0.475,0.274,0.499,0.454,0.442,0.223,0.192,north-northwest,1.3,No
2015/09/20,08:50,0.470,0.278,0.495,0.454,0.451,0.220,0.192,north,0.5,No
2015/09/20,09:00,0.478,0.277,0.491,0.461,0.448,0.223,0.191,north,1.3,No
2015/09/20,09:10,0.476,0.275,0.499,0.455,0.442,0.224,0.190,-,CALM,No
2015/09/20,09:20,0.471,0.277,0.496,0.452,0.442,0.221,0.191,northeast,0.7,No
2015/09/20,09:30,0.474,0.279,0.491,0.454,0.451,0.222,0.192,northeast,2.2,No
2015/09/20,09:40,0.479,0.278,0.495,0.459,0.448,0.223,0.191,north-northeast,2.9,No
2015/09/20,09:50,0.474,0.275,0.498,0.456,0.446,0.223,0.190,north-northeast,3.6,No
2015/09/20,10:00,0.472,0.274,0.492,0.454,0.443,0.222,0.190,north-northeast,3.3,No
2015/09/20,10:10,0.470,0.275,0.494,0.450,0.448,0.223,0.192,north-northeast,3.6,No
2015/09/20,10:20,0.480,0.278,0.497,0.458,0.452,0.223,0.192,north-northeast,2.8,No
2015/09/20,10:30,0.477,0.278,0.497,0.459,0.446,0.224,0.191,north-northeast,3.9,No
2015/09/20,10:40,0.473,0.276,0.488,0.453,0.446,0.223,0.191,north,3.6,No
2015/09/20,10:50,0.472,0.273,0.495,0.453,0.444,0.222,0.189,north-northeast,3.1,No
2015/09/20,11:00,0.478,0.278,0.497,0.451,0.442,0.221,0.191,north-northeast,3.2,No
2015/09/20,11:10,0.477,0.280,0.495,0.452,0.442,0.223,0.193,north-northwest,2.8,No
2015/09/20,11:20,0.476,0.278,0.493,0.452,0.445,0.222,0.193,north-northeast,3.5,No
2015/09/20,11:30,0.472,0.276,0.491,0.453,0.446,0.223,0.192,north-northeast,3.1,No
2015/09/20,11:40,0.472,0.276,0.492,0.453,0.446,0.223,0.192,north-northeast,3.9,No
2015/09/20,11:50,0.470,0.276,0.491,0.455,0.447,0.224,0.191,north-northeast,5.0,No
2015/09/20,12:00,0.471,0.275,0.493,0.456,0.447,0.224,0.192,north-northeast,4.7,No
2015/09/20,12:10,0.472,0.276,0.493,0.456,0.447,0.224,0.192,northeast,5.8,No
2015/09/20,12:20,0.477,0.275,0.492,0.457,0.449,0.225,0.192,northeast,6.1,No
2015/09/20,12:30,0.479,0.276,0.494,0.456,0.449,0.225,0.192,northeast,6.3,No
2015/09/20,12:40,0.478,0.276,0.493,0.456,0.447,0.224,0.192,northeast,6.4,No
2015/09/20,12:50,0.475,0.275,0.495,0.458,0.448,0.224,0.193,northeast,5.0,No
2015/09/20,13:00,0.473,0.275,0.496,0.457,0.448,0.224,0.192,northeast,5.5,No
2015/09/20,13:10,0.476,0.276,0.494,0.455,0.448,0.223,0.191,north-northeast,5.1,No
2015/09/20,13:20,0.480,0.279,0.495,0.456,0.448,0.224,0.191,northeast,3.6,No
2015/09/20,13:30,0.477,0.278,0.494,0.457,0.449,0.223,0.191,northeast,3.1,No
2015/09/20,13:40,0.473,0.276,0.493,0.454,0.454,0.222,0.192,north-northeast,3.9,No
2015/09/20,13:50,0.478,0.276,0.498,0.462,0.454,0.223,0.194,north-northeast,3.4,No
2015/09/20,14:00,0.480,0.279,0.498,0.462,0.448,0.224,0.193,north,4.8,No
2015/09/20,14:10,0.476,0.279,0.497,0.459,0.446,0.224,0.192,north-northeast,4.3,No
2015/09/20,14:20,0.473,0.277,0.495,0.458,0.445,0.224,0.193,north-northeast,5.5,No
2015/09/20,14:30,0.477,0.277,0.492,0.456,0.451,0.223,0.191,north-northeast,5.0,No
2015/09/20,14:40,0.481,0.279,0.491,0.465,0.453,0.224,0.191,north-northeast,3.9,No
2015/09/20,14:50,0.477,0.279,0.495,0.462,0.450,0.224,0.193,north,4.5,No
2015/09/20,15:00,0.475,0.277,0.501,0.459,0.446,0.224,0.193,north,5.8,No
2015/09/20,15:10,0.482,0.277,0.496,0.458,0.448,0.223,0.191,north,4.7,No
2015/09/20,15:20,0.478,0.280,0.495,0.465,0.454,0.224,0.194,north,5.5,No
2015/09/20,15:30,0.472,0.280,0.501,0.461,0.450,0.224,0.194,north,6.1,No
2015/09/20,15:40,0.480,0.276,0.497,0.456,0.446,0.224,0.192,north,4.7,No
2015/09/20,15:50,0.478,0.280,0.494,0.462,0.447,0.223,0.194,north,5.2,No
2015/09/20,16:00,0.473,0.280,0.500,0.461,0.453,0.224,0.194,north,5.4,No
2015/09/20,16:10,0.477,0.276,0.498,0.455,0.450,0.222,0.192,north,4.6,No
2015/09/20,16:20,0.481,0.279,0.493,0.462,0.449,0.223,0.193,north,3.2,No
2015/09/20,16:30,0.475,0.278,0.500,0.461,0.445,0.223,0.194,north,3.9,No
2015/09/20,16:40,0.474,0.277,0.500,0.455,0.449,0.223,0.193,north-northwest,3.4,No
2015/09/20,16:50,0.480,0.278,0.495,0.462,0.454,0.223,0.194,north-northwest,3.4,No
2015/09/20,17:00,0.475,0.278,0.501,0.461,0.451,0.224,0.194,north-northwest,3.2,No
2015/09/20,17:10,0.478,0.276,0.500,0.458,0.445,0.224,0.191,north,3.4,No
2015/09/20,17:20,0.481,0.279,0.493,0.463,0.453,0.225,0.193,north-northwest,3.3,No
2015/09/20,17:30,0.476,0.278,0.501,0.458,0.450,0.224,0.192,north,3.7,No
2015/09/20,17:40,0.477,0.279,0.501,0.459,0.448,0.224,0.193,north-northwest,3.6,No
2015/09/20,17:50,0.480,0.279,0.495,0.463,0.455,0.224,0.193,north-northwest,3.6,No
2015/09/20,18:00,0.474,0.277,0.500,0.458,0.450,0.223,0.194,north,4.7,No
2015/09/20,18:10,0.479,0.280,0.497,0.463,0.450,0.225,0.193,north,4.5,No
2015/09/20,18:20,0.477,0.278,0.500,0.458,0.451,0.224,0.194,north,4.2,No
2015/09/20,18:30,0.478,0.280,0.501,0.460,0.451,0.225,0.191,north,3.7,No
2015/09/20,18:40,0.477,0.278,0.495,0.461,0.453,0.225,0.193,north,3.6,No
2015/09/20,18:50,0.476,0.278,0.500,0.457,0.447,0.224,0.193,north-northwest,2.9,No
2015/09/20,19:00,0.481,0.279,0.497,0.462,0.454,0.224,0.193,north-northwest,2.3,No
2015/09/20,19:10,0.476,0.279,0.501,0.460,0.449,0.223,0.193,north-northwest,2.5,No
2015/09/20,19:20,0.478,0.279,0.500,0.462,0.452,0.224,0.192,north-northwest,2.4,No
2015/09/20,19:30,0.478,0.279,0.497,0.460,0.449,0.224,0.193,north-northwest,3.3,No
2015/09/20,19:40,0.478,0.279,0.502,0.460,0.452,0.225,0.194,north,4.4,No
2015/09/20,19:50,0.480,0.279,0.496,0.461,0.452,0.224,0.193,north,4.8,No
2015/09/20,20:00,0.474,0.278,0.502,0.458,0.450,0.225,0.193,north,4.7,No
2015/09/20,20:10,0.480,0.278,0.496,0.461,0.453,0.224,0.194,north-northeast,5.3,No
2015/09/20,20:20,0.476,0.278,0.500,0.459,0.447,0.225,0.192,north-northeast,4.6,No
2015/09/20,20:30,0.480,0.278,0.500,0.463,0.454,0.223,0.194,north-northeast,3.9,No
2015/09/20,20:40,0.476,0.280,0.499,0.456,0.448,0.224,0.194,north-northeast,3.6,No
2015/09/20,20:50,0.477,0.278,0.500,0.463,0.455,0.223,0.194,north,3.9,No
2015/09/20,21:00,0.479,0.279,0.496,0.457,0.448,0.225,0.194,north,4.2,No
2015/09/20,21:10,0.476,0.277,0.500,0.464,0.453,0.222,0.193,north,4.6,No
2015/09/20,21:20,0.481,0.279,0.496,0.459,0.448,0.225,0.193,north-northwest,4.0,No
2015/09/20,21:30,0.475,0.277,0.501,0.461,0.453,0.223,0.193,north,4.0,No
2015/09/20,21:40,0.481,0.279,0.497,0.457,0.448,0.225,0.194,north,3.9,No
2015/09/20,21:50,0.475,0.277,0.501,0.460,0.454,0.223,0.193,north,4.6,No
2015/09/20,22:00,0.478,0.279,0.496,0.460,0.447,0.225,0.194,north,5.0,No
2015/09/20,22:10,0.477,0.278,0.500,0.460,0.451,0.224,0.193,north-northwest,5.1,No
2015/09/20,22:20,0.479,0.280,0.497,0.459,0.449,0.224,0.193,north,4.8,No
2015/09/20,22:30,0.480,0.278,0.498,0.458,0.451,0.223,0.193,north,4.9,No
2015/09/20,22:40,0.475,0.278,0.498,0.460,0.450,0.225,0.193,north,5.2,No
2015/09/20,22:50,0.479,0.277,0.496,0.459,0.449,0.223,0.192,north,4.3,No
2015/09/20,23:00,0.476,0.280,0.499,0.461,0.450,0.225,0.194,north,5.0,No
2015/09/20,23:10,0.480,0.277,0.495,0.458,0.448,0.223,0.194,north,4.7,No
2015/09/20,23:20,0.477,0.279,0.502,0.460,0.453,0.223,0.194,north,5.0,No
2015/09/20,23:30,0.479,0.279,0.498,0.457,0.448,0.224,0.193,north,5.3,No
2015/09/20,23:40,0.477,0.279,0.500,0.461,0.453,0.224,0.194,north,5.3,No
2015/09/20,23:50,0.477,0.279,0.497,0.458,0.447,0.224,0.192,north,5.2,No
